[[{"header":{"parameterUnit":"m.s-1","parameterCategory":1,"la1":30.2991,"la2":30.254,"lo1":-89.0895,"lo2":-89.0444,"dy":0.0017,"dx":0.0017,"nx":28,"ny":28,"refTime":"2024-06-05T09:00:00:Z","depth":0,"parameterNumber":2,"parameterNumberName":"U-component_of_WINDS"},"data":[0,0,0,0,0,0,0,0,0,0,0,0,0,0,0,0,0,0,0,0,0,0,0,0,0,0,0,0,0,0,0,0,0,0,0,0,0,0,0,0,0,0,0,0,0,0,0,0,0,0,0,0,0,0,0,0,0,0,2.5663,2.5664,0,2.5762,2.5763,2.5764,2.5717,2.5714,2.5712,2.5709,2.5812,2.5817,2.5822,0,0,0,0,0,0,0,0,0,0,0,0,0,2.5438,2.5443,2.5663,2.5665,2.5666,2.5761,2.5763,2.5764,2.5717,2.5714,2.5711,2.5708,2.581,2.5816,2.5822,0,0,0,0,0,0,0,0,0,0,0,0,0,2.5536,2.5444,2.5663,2.5654,2.5654,2.5761,2.5763,2.5764,2.5718,2.5714,2.571,2.5707,2.5808,2.5816,2.5823,2.5946,0,0,2.5846,2.585,0,0,0,0,0,0,0,0,2.5531,2.5545,2.5654,2.5655,2.5655,2.5723,2.5721,2.5825,2.5719,2.5694,2.5709,2.5705,2.5785,2.5795,2.5821,2.5951,2.5955,2.5847,2.5852,2.5855,2.5857,0,0,0,0,0,0,0,2.5524,2.554,2.5702,2.5656,2.5656,2.5646,2.5656,2.5741,2.576,2.5695,2.5692,2.5704,2.5785,2.5814,2.5824,2.5956,2.5847,2.5854,2.5858,2.5861,2.6194,2.6198,0,0,0,0,0,0,2.5517,2.5535,2.5699,2.5705,2.5582,2.5653,2.5664,2.5705,2.5758,2.5763,2.5708,2.5702,2.5803,2.5815,2.5827,2.5976,2.5855,2.5862,2.5866,2.619,2.6195,2.62,0,0,0,0,0,0,2.5513,2.5532,2.5695,2.5619,2.5639,2.5661,2.5707,2.5709,2.5738,2.5768,2.5771,2.5734,2.5801,2.5816,2.5917,2.5979,2.5865,2.5872,2.6185,2.6192,2.6198,2.6274,0,0,0,0,0,0,2.5506,2.5531,2.5577,2.5621,2.5643,2.5783,2.5711,2.5714,2.5751,2.5745,2.5793,2.5798,2.5799,2.5906,2.5925,2.5987,2.5878,2.618,2.6188,2.6195,2.6266,2.6283,2.6296,0,0,0,0,0,2.5498,2.5594,2.5579,2.5599,2.5701,2.5786,2.58,2.5798,2.5756,2.5803,2.5823,2.5796,2.5969,2.5917,2.5937,2.6003,2.6176,2.6186,2.6195,2.626,2.6279,2.6296,0,0,0,0,0,0,2.5557,2.56,2.5584,2.5696,2.5738,2.5778,2.5837,2.5819,2.5874,2.5866,2.5863,2.5874,2.5979,2.6001,2.5942,2.6126,2.6066,2.608,2.6108,2.6127,2.6142,2.6135,2.5885,0,0,0,0,0,2.5584,2.5648,2.5682,2.5779,2.58,2.5816,2.5853,2.5848,2.5892,2.5909,2.5936,2.598,2.6044,2.6087,2.6147,2.6269,2.628,2.6325,2.634,2.6352,2.6365,2.6433,2.6454,2.6231,2.6231,2.6231,0,0,2.5638,2.5669,2.5711,2.5791,2.5823,2.5892,2.5831,2.5905,2.5957,2.5921,2.6018,2.6039,2.6088,2.6201,2.6252,2.6222,2.6429,2.6364,2.6374,2.638,2.6445,2.6466,2.6485,2.6238,2.6237,2.6236,0,0,2.5773,2.5802,2.5887,2.5921,2.597,2.5979,2.6,2.6043,2.6056,2.6154,2.6129,2.6191,2.6301,2.6338,2.6371,2.6522,2.6501,2.6542,2.6621,2.6688,2.6705,2.6721,2.6777,2.6797,2.6554,2.6555,2.6555,0,2.5835,2.5937,2.5933,2.601,2.6048,2.6018,2.6105,2.6138,2.6205,2.6232,2.6198,2.6337,2.6368,2.649,2.6527,2.6554,2.6579,2.6537,2.6703,2.6719,2.6733,2.6787,2.6807,2.6559,2.6559,2.6558,2.6558,0,2.6012,2.6083,2.6145,2.6211,2.6255,2.6337,2.6347,2.6392,2.6385,2.6399,2.65,2.6536,2.6604,2.6633,2.6626,2.6755,2.6735,2.6702,2.6642,2.6759,2.681,2.683,2.6566,2.6565,2.6563,2.6562,0,0,2.6186,2.6249,2.6273,2.6303,2.6356,2.6412,2.6493,2.656,2.66,2.6647,2.6717,2.6812,2.6783,2.682,2.6817,2.6876,2.6997,2.6836,2.6837,2.6866,2.7143,2.7169,2.7193,2.6982,2.6986,2.6989,2.714,0,2.6326,2.6468,2.6468,2.6599,2.6666,2.664,2.6711,2.6753,2.6768,2.6828,2.6846,2.6914,2.6869,2.6892,2.6949,2.697,2.7052,2.6959,2.7049,2.7052,2.7038,2.7218,2.7245,2.7386,2.7159,2.7163,2.7165,0,2.6508,2.6562,2.67,2.6746,2.6774,2.6838,2.69,2.6958,2.7005,2.7012,2.7055,2.7044,2.7129,2.7065,2.7183,2.712,2.7157,2.7173,2.7178,2.7188,2.7116,2.7234,2.743,2.7452,2.7196,2.7193,2.7191,0,2.6624,2.6731,2.6828,2.6855,2.691,2.6956,2.6981,2.7024,2.7065,2.712,2.7147,2.7211,2.7247,2.7298,2.7305,2.7258,2.7425,2.7361,2.7435,2.7435,2.7472,2.747,2.7678,2.7493,2.7493,2.7492,2.7492,0,2.6781,2.6867,2.6881,2.6941,2.7038,2.7038,2.7134,2.7155,2.7194,2.7259,2.724,2.7302,2.7307,2.7371,2.7377,2.7475,2.7491,2.75,2.7501,2.7503,2.7502,2.7528,2.7519,2.7498,2.7497,2.7496,2.7495,0,2.6927,2.6939,2.7044,2.7088,2.7101,2.7171,2.7209,2.7267,2.7281,2.7363,2.7383,2.7406,2.748,2.7492,2.7579,2.7584,2.7702,2.7692,2.7686,2.7685,2.7759,2.7753,2.7992,2.8025,2.7817,2.7819,2.7821,0,2.7027,2.7093,2.7144,2.7186,2.7214,2.7281,2.7324,2.7327,2.7372,2.7431,2.7483,2.7555,2.7613,2.7734,2.7759,2.7826,2.7819,2.7898,2.7829,2.7829,2.7822,2.7819,2.7827,2.7912,2.7914,2.7916,2.7918,0,2.7204,2.7208,2.7269,2.7333,2.7384,2.7435,2.7482,2.7518,2.7528,2.758,2.7655,2.7701,2.779,2.7863,2.7931,2.7958,2.7941,2.7939,2.796,2.7963,2.7958,2.7964,2.7724,2.7934,2.7932,2.7931,2.793,2.793,2.7332,2.739,2.7436,2.7505,2.7541,2.7587,2.7645,2.7667,2.773,2.7803,2.7801,2.7885,2.7932,2.8021,2.8053,2.8119,2.8094,2.8124,2.8132,2.8139,2.8148,2.7946,2.8132,2.8131,2.8131,2.813,2.813,0,2.7509,2.7538,2.7602,2.767,2.7725,2.7703,2.7756,2.7804,2.7878,2.7923,2.7981,2.807,2.8141,2.8172,2.8242,2.829,2.8284,2.8309,2.8306,2.8313,2.8165,2.8141,2.8312,2.8312,2.8312,2.8312,2.8312,2.8312,2.7608,2.7706,2.7716,2.7833,2.786,2.7942,2.7975,2.8018,2.8054,2.8154,2.8213,2.8232,2.8273,2.8347,2.8412,2.8419,2.8447,2.8475,2.848,2.8341,2.8323,2.8305,2.8283,2.8481,2.8481,2.8622,2.8623,2.8624]},{"header":{"parameterUnit":"m.s-1","parameterCategory":1,"la1":30.2991,"la2":30.254,"lo1":-89.0895,"lo2":-89.0444,"dy":0.0017,"dx":0.0017,"nx":28,"ny":28,"refTime":"2024-06-05T09:00:00:Z","depth":0,"parameterNumber":3,"parameterNumberName":"V-component_of_WINDS"},"data":[0,0,0,0,0,0,0,0,0,0,0,0,0,0,0,0,0,0,0,0,0,0,0,0,0,0,0,0,0,0,0,0,0,0,0,0,0,0,0,0,0,0,0,0,0,0,0,0,0,0,0,0,0,0,0,0,0,0,-0.1579,-0.1577,0,-0.1449,-0.1447,-0.1446,-0.144,-0.1441,-0.1443,-0.1444,-0.1303,-0.1298,-0.1293,0,0,0,0,0,0,0,0,0,0,0,0,0,-0.1814,-0.181,-0.1579,-0.1577,-0.1576,-0.1449,-0.1447,-0.1446,-0.1439,-0.1441,-0.1443,-0.1445,-0.1305,-0.1299,-0.1293,0,0,0,0,0,0,0,0,0,0,0,0,0,-0.1701,-0.1809,-0.1579,-0.1557,-0.1554,-0.145,-0.1447,-0.1445,-0.1439,-0.1441,-0.1444,-0.1446,-0.1307,-0.13,-0.1292,-0.1197,0,0,-0.1268,-0.1265,0,0,0,0,0,0,0,0,-0.1707,-0.1692,-0.1562,-0.1559,-0.1555,-0.1463,-0.1479,-0.1362,-0.1439,-0.1483,-0.1444,-0.1447,-0.1354,-0.1343,-0.1313,-0.1191,-0.1185,-0.1267,-0.1263,-0.1259,-0.1257,0,0,0,0,0,0,0,-0.1715,-0.1698,-0.1527,-0.156,-0.1556,-0.1552,-0.1538,-0.1457,-0.1407,-0.1479,-0.1478,-0.1463,-0.1353,-0.132,-0.131,-0.1183,-0.1268,-0.1261,-0.1256,-0.1253,-0.0976,-0.0973,0,0,0,0,0,0,-0.1728,-0.1704,-0.1531,-0.1523,-0.1639,-0.1546,-0.1531,-0.149,-0.1408,-0.1397,-0.1462,-0.1464,-0.1333,-0.1319,-0.1305,-0.1188,-0.1259,-0.1252,-0.1248,-0.0979,-0.0975,-0.0972,0,0,0,0,0,0,-0.1733,-0.1713,-0.1536,-0.1614,-0.1591,-0.1539,-0.1494,-0.1486,-0.1454,-0.1395,-0.1385,-0.1438,-0.1334,-0.1316,-0.1225,-0.1183,-0.1249,-0.1242,-0.0982,-0.0978,-0.0974,-0.0954,0,0,0,0,0,0,-0.174,-0.1715,-0.168,-0.1613,-0.1587,-0.1461,-0.1491,-0.1482,-0.1442,-0.1443,-0.137,-0.136,-0.1334,-0.1236,-0.1217,-0.1173,-0.1235,-0.0985,-0.098,-0.0975,-0.0958,-0.095,-0.0943,0,0,0,0,0,-0.1749,-0.1678,-0.1678,-0.1657,-0.1543,-0.1458,-0.1443,-0.1417,-0.1439,-0.1402,-0.1364,-0.1363,-0.1191,-0.1227,-0.1205,-0.1159,-0.0988,-0.0981,-0.0976,-0.0962,-0.0952,-0.0943,0,0,0,0,0,0,-0.1738,-0.1669,-0.1668,-0.1574,-0.1523,-0.1458,-0.141,-0.1407,-0.1346,-0.135,-0.1317,-0.1301,-0.121,-0.1176,-0.1217,-0.1063,-0.1092,-0.1081,-0.1089,-0.1078,-0.1071,-0.108,-0.1229,0,0,0,0,0,-0.1726,-0.1666,-0.1607,-0.1529,-0.1504,-0.1462,-0.1424,-0.1409,-0.1353,-0.133,-0.1285,-0.1229,-0.1162,-0.1119,-0.1054,-0.0954,-0.0937,-0.0911,-0.0904,-0.0898,-0.0888,-0.0831,-0.0819,-0.0953,-0.0953,-0.0953,0,0,-0.1697,-0.1652,-0.1616,-0.1526,-0.1485,-0.1421,-0.1443,-0.1375,-0.1326,-0.1319,-0.1231,-0.1196,-0.113,-0.1035,-0.099,-0.1003,-0.0848,-0.089,-0.0886,-0.0879,-0.0824,-0.0811,-0.08,-0.0948,-0.0949,-0.095,0,0,-0.1614,-0.1574,-0.1505,-0.1464,-0.1401,-0.1374,-0.1358,-0.1293,-0.127,-0.1182,-0.1175,-0.1116,-0.1003,-0.0956,-0.0918,-0.0818,-0.0814,-0.0798,-0.0757,-0.0702,-0.0692,-0.0682,-0.0645,-0.0632,-0.0789,-0.0789,-0.0789,0,-0.1586,-0.1492,-0.147,-0.1401,-0.1362,-0.1356,-0.1284,-0.1244,-0.1162,-0.1134,-0.115,-0.1008,-0.0963,-0.0856,-0.0832,-0.0802,-0.078,-0.0805,-0.0696,-0.0686,-0.0676,-0.0641,-0.0627,-0.0787,-0.0788,-0.0788,-0.0788,0,-0.146,-0.1395,-0.1346,-0.1271,-0.1226,-0.1156,-0.1121,-0.1078,-0.1067,-0.1037,-0.0947,-0.0894,-0.0819,-0.0793,-0.078,-0.0683,-0.0693,-0.0703,-0.0731,-0.0662,-0.0628,-0.0614,-0.0785,-0.0786,-0.0786,-0.0787,0,0,-0.1364,-0.1279,-0.1261,-0.1227,-0.1158,-0.1106,-0.1036,-0.0965,-0.0927,-0.0872,-0.081,-0.0715,-0.0725,-0.0681,-0.0663,-0.0616,-0.0539,-0.0631,-0.0629,-0.0614,-0.0427,-0.0419,-0.0403,-0.0537,-0.0534,-0.0532,-0.0432,0,-0.1271,-0.1149,-0.1127,-0.1019,-0.0958,-0.0952,-0.089,-0.084,-0.0811,-0.0753,-0.0719,-0.0652,-0.067,-0.0644,-0.0597,-0.0558,-0.05,-0.0565,-0.0477,-0.0474,-0.0492,-0.0386,-0.0376,-0.0284,-0.0419,-0.0416,-0.0415,0,-0.1146,-0.1091,-0.0977,-0.0917,-0.0891,-0.0836,-0.0769,-0.0715,-0.0657,-0.0639,-0.0592,-0.058,-0.0505,-0.0538,-0.0433,-0.0478,-0.044,-0.0416,-0.0412,-0.0401,-0.0439,-0.037,-0.0255,-0.024,-0.0394,-0.0395,-0.0397,0,-0.1086,-0.0982,-0.0901,-0.0872,-0.08,-0.0762,-0.073,-0.0675,-0.0634,-0.0575,-0.0547,-0.048,-0.0442,-0.0389,-0.0358,-0.0386,-0.0254,-0.0285,-0.0235,-0.0235,-0.0205,-0.0207,-0.0081,-0.0185,-0.0185,-0.0185,-0.0186,0,-0.0984,-0.0914,-0.0873,-0.0822,-0.0744,-0.0719,-0.0641,-0.0609,-0.0561,-0.0503,-0.0493,-0.0438,-0.0402,-0.0342,-0.0317,-0.0233,-0.0216,-0.0197,-0.0191,-0.0197,-0.0199,-0.017,-0.0175,-0.0182,-0.0182,-0.0183,-0.0184,0,-0.0901,-0.0872,-0.0782,-0.0723,-0.0706,-0.0651,-0.0599,-0.0548,-0.0521,-0.0447,-0.0428,-0.0382,-0.0311,-0.0276,-0.0186,-0.017,-0.0073,-0.0072,-0.0093,-0.009,-0.0041,-0.0046,0.011,0.0132,0.0011,0.0012,0.0013,0,-0.0837,-0.0784,-0.072,-0.0682,-0.0649,-0.0587,-0.0546,-0.052,-0.0476,-0.0408,-0.0365,-0.0294,-0.0235,-0.0121,-0.0078,-0.0009,-0.0005,0.0045,0.0006,-0.0002,-0.0002,-0.0005,0.0002,0.0053,0.0054,0.0055,0.0056,0,-0.0726,-0.0714,-0.0656,-0.0593,-0.0545,-0.0493,-0.0442,-0.0411,-0.0376,-0.0328,-0.0256,-0.0211,-0.012,-0.0049,0.0023,0.0059,0.0064,0.0067,0.0083,0.0079,0.0065,0.0074,-0.0072,0.0064,0.0063,0.0063,0.0062,0.0062,-0.0649,-0.0602,-0.0549,-0.0485,-0.0445,-0.0398,-0.0348,-0.0315,-0.0255,-0.0181,-0.0169,-0.0092,-0.0035,0.0061,0.0098,0.0161,0.015,0.0172,0.0178,0.0184,0.0187,0.0052,0.0174,0.0173,0.0173,0.0173,0.0173,0,-0.0536,-0.0503,-0.0444,-0.0375,-0.0324,-0.0327,-0.0271,-0.0227,-0.0161,-0.011,-0.0053,0.003,0.0099,0.0146,0.0217,0.0257,0.0262,0.0275,0.0274,0.0282,0.0192,0.0172,0.0271,0.0271,0.0271,0.0271,0.0271,0.0271,-0.0471,-0.039,-0.0372,-0.0271,-0.0237,-0.0164,-0.0132,-0.0087,-0.0047,0.0045,0.0101,0.013,0.018,0.0254,0.0318,0.033,0.0357,0.0371,0.0383,0.0299,0.0289,0.0279,0.026,0.0376,0.0376,0.0468,0.0469,0.047]}]]